Concord, NH

3:10 AM EDT on March 23, 2017 (GMT -0400)
Concord Municipal

Weather History for KCON - August, 2014

Change the Weather History Date:

Friday, August 15, 2014

  Actual Average Record
Temperature  
Mean Temperature 60 °F 69 °F  
Max Temperature 70 °F 81 °F 96 °F (1944)
Min Temperature 50 °F 57 °F 38 °F (1899)
Degree Days  
Heating Degree Days 5 1  
Month to date heating degree days 12 10  
Since 1 June heating degree days 68 112  
Since 1 July heating degree days 12 27  
Cooling Degree Days 0 5  
Month to date cooling degree days 45 78  
Year to date cooling degree days 295 352  
Since 1 June cooling degree days 293 334  
Growing Degree Days 9 (Base 50)    
Moisture  
Dew Point 51 °F    
Average Humidity 74    
Maximum Humidity 100    
Minimum Humidity 47    
Precipitation  
Precipitation T in 0.11 in 2.19 in (2011)
Month to date precipitation 2.15 1.65  
Year to date precipitation 31.21 24.74  
Snow  
Snow 0.00 in 0.00 in 0.00 in (2001)
Month to date snowfall 0.0 0.0  
Since 1 June snowfall 0.0 0.0  
Since 1 July snowfall 0.0 0.0  
Snow Depth 0.00 in    
Sea Level Pressure  
Sea Level Pressure 29.88 in    
Wind  
Wind Speed 5 mph (West)    
Max Wind Speed 14 mph    
Max Gust Speed 21 mph    
Visibility 10 miles    
Events Rain    
T = Trace of Precipitation, MM = Missing Value Source: NWS Daily Summary

Daily Weather History Graph

Daily Weather History Graph

Search for Another Location

Airport or City:

Trip Planner

Search our weather history database for the weather conditions in past years. The results will help you decide how hot, cold, wet, or windy it might be!

Date:

Astronomy

Aug. 15, 2014 Rise Set
Actual Time 5:51 AM EDT 7:48 PM EDT
Civil Twilight 5:20 AM EDT 8:19 PM EDT
Nautical Twilight 4:42 AM EDT 8:56 PM EDT
Astronomical Twilight 4:01 AM EDT 9:37 PM EDT
Moon 10:37 PM EDT (8/15) 11:41 AM EDT (8/15)
Length of Visible Light 14h 58m
Length of Day
13h 57m
Waning Gibbous, 69% of the Moon is Illuminated
Aug 15
Waning Gibbous
Aug 17
Last Quarter
Aug 25
New
Sep 2
First Quarter
Sep 8
Full

Hourly Weather History & Observations

Time (EDT) Temp. Dew Point Humidity Pressure Visibility Wind Dir Wind Speed Gust Speed Precip Events Conditions
12:51 AM 50.0 °F 48.0 °F 93% 29.89 in 10.0 mi Calm Calm - N/A   Scattered Clouds
1:51 AM 52.0 °F 50.0 °F 93% 29.88 in 10.0 mi Calm Calm - N/A   Overcast
2:51 AM 52.0 °F 51.1 °F 97% 29.88 in 10.0 mi Calm Calm - N/A   Overcast
3:51 AM 53.1 °F 51.1 °F 93% 29.87 in 10.0 mi ENE 3.5 mph - N/A   Overcast
4:51 AM 54.0 °F 52.0 °F 93% 29.86 in 10.0 mi Calm Calm - 0.00 in Rain Light Rain
5:51 AM 54.0 °F 52.0 °F 93% 29.86 in 10.0 mi Calm Calm - 0.00 in   Overcast
6:51 AM 55.0 °F 52.0 °F 89% 29.88 in 10.0 mi WNW 5.8 mph - N/A   Overcast
7:51 AM 57.0 °F 52.0 °F 83% 29.88 in 10.0 mi NW 3.5 mph - N/A   Overcast
8:51 AM 57.9 °F 52.0 °F 81% 29.88 in 10.0 mi Calm Calm - N/A   Overcast
9:51 AM 64.9 °F 52.0 °F 63% 29.88 in 10.0 mi NW 5.8 mph - N/A   Scattered Clouds
10:51 AM 66.2 °F 48.2 °F 52% 29.88 in 10.0 mi West 5.8 mph - N/A   Partly Cloudy
11:51 AM 69.1 °F 48.9 °F 49% 29.88 in 10.0 mi West 8.1 mph 17.3 mph N/A   Mostly Cloudy
12:51 PM 68.0 °F 48.0 °F 49% 29.87 in 10.0 mi Variable 5.8 mph - N/A   Mostly Cloudy
1:51 PM 66.2 °F 48.2 °F 52% 29.88 in 10.0 mi West 12.7 mph 19.6 mph N/A   Overcast
2:51 PM 64.0 °F 48.0 °F 56% 29.88 in 10.0 mi West 6.9 mph - N/A   Overcast
3:51 PM 64.9 °F 50.0 °F 58% 29.87 in 10.0 mi WSW 5.8 mph - N/A   Overcast
4:51 PM 66.2 °F 50.0 °F 56% 29.87 in 10.0 mi West 4.6 mph - N/A   Overcast
5:51 PM 64.9 °F 51.1 °F 61% 29.87 in 10.0 mi SW 6.9 mph - N/A   Overcast
6:51 PM 64.0 °F 51.1 °F 63% 29.87 in 10.0 mi WSW 9.2 mph - N/A   Overcast
7:51 PM 62.1 °F 51.1 °F 67% 29.89 in 10.0 mi WSW 6.9 mph - N/A   Overcast
8:51 PM 61.0 °F 52.0 °F 72% 29.90 in 10.0 mi WSW 4.6 mph - N/A   Overcast
9:51 PM 60.1 °F 52.0 °F 75% 29.91 in 10.0 mi WSW 4.6 mph - N/A   Overcast
10:51 PM 60.1 °F 52.0 °F 75% 29.91 in 10.0 mi West 4.6 mph - N/A   Overcast